Vorticity
4 5 5 4 5 7 7 6 4 3 5 1 2 22 28 1 -1 11 4 28 5 8 3 8 9 11 6 8 7 6 40 -4 9 -2 3 4 7 7 -0 4 5 5 7
3 2 2 3 3 2 3 4 5 6 8 8 6 4 1 3 1 4 4 6 5 6 8 9 8 7 5 9 18 8 18 -20 22 4 -20 10 9 -4 12 6 3 5 9
3 3 5 4 4 3 4 5 5 5 6 6 6 5 6 7 8 8 9 10 9 9 9 9 9 8 6 4 4 5 6 44 15 -10 7 -0 17 19 1 3 5 9 10
3 5 6 7 7 7 7 6 5 6 6 8 9 9 9 8 8 6 6 7 7 6 6 7 7 9 14 12 6 13 8 -16 11 14 18 21 9 11 2 2 5 9 10
8 8 7 8 9 9 10 9 9 9 9 8 7 7 9 10 11 14 14 11 11 11 10 10 9 6 6 7 23 12 26 -12 21 -2 6 9 9 1 4 2 4 9 12
7 7 7 8 8 8 9 8 8 9 7 5 7 8 7 8 10 13 12 9 11 12 12 12 12 11 10 17 12 12 8 -6 2 13 8 8 -1 22 3 3 4 7 12
7 9 9 9 7 7 7 7 7 9 10 11 11 10 8 8 4 6 7 11 13 12 10 10 10 11 11 17 11 4 11 -15 3 8 7 3 -7 6 1 2 -0 5 12
5 5 5 5 5 5 4 5 10 9 10 11 10 10 10 10 9 7 7 8 8 10 12 13 12 11 13 12 11 19 -5 -6 3 10 11 23 4 -6 1 2 7 5 12
13 14 13 14 14 13 13 13 13 9 6 4 5 7 6 5 8 9 9 7 8 10 9 12 12 13 11 11 16 7 2 18 28 -1 22 14 13 20 1 2 5 8 12
8 9 9 8 8 10 12 12 10 9 6 5 5 7 10 13 13 14 11 11 9 7 8 10 12 13 11 12 11 12 8 19 14 9 8 -4 11 13 22 11 5 9 10
7 8 9 11 13 14 15 16 17 18 20 22 22 15 6 11 13 11 15 18 17 14 11 7 9 11 14 14 13 10 11 11 7 7 5 15 10 20 2 12 14 11 10
12 16 17 16 16 15 14 14 14 14 14 13 14 17 18 18 14 18 24 25 22 20 20 18 14 12 12 13 16 13 12 11 13 11 8 4 1 11 17 14 11 9 9
15 17 14 12 12 12 14 17 18 20 20 21 20 19 18 16 15 17 16 19 19 17 19 20 19 16 14 16 15 15 15 13 11 10 11 14 19 17 10 11 11 9 8
13 10 12 10 14 21 16 13 15 14 14 13 13 14 15 16 17 15 18 17 17 16 16 16 14 17 20 14 19 21 13 14 12 10 9 8 11 11 9 11 10 9 9
10 10 11 17 19 14 9 10 11 13 12 12 13 13 13 14 16 18 20 19 16 15 17 18 19 19 20 18 13 22 11 13 8 21 8 4 11 11 10 5 13 7 10
10 12 14 18 13 8 8 9 10 11 12 14 13 12 11 12 12 12 13 18 20 14 10 9 10 14 20 24 19 13 17 4 19 15 0 9 16 -4 19 9 14 8 10
12 13 15 16 9 6 7 8 9 12 12 14 18 16 12 11 15 12 9 12 13 18 15 12 9 9 13 15 31 16 16 10 -2 43 2 27 3 14 4 13 21 10 8
14 14 12 9 8 8 8 10 13 14 13 17 15 23 15 10 12 15 15 10 9 12 14 14 11 8 7 9 13 31 14 17 19 -3 35 8 4 12 17 12 18 13 7
13 15 14 10 8 10 8 13 18 16 15 15 15 17 23 11 8 11 12 15 16 13 10 10 9 9 7 7 9 12 27 16 8 13 16 16 14 9 13 15 15 19 7
13 17 16 13 11 9 15 15 17 18 18 18 19 20 21 20 12 10 10 13 14 15 16 17 14 11 9 9 7 12 12 29 12 11 13 19 17 12 18 14 11 20 17
13 19 17 13 11 14 16 21 22 20 19 16 16 17 17 21 16 17 13 12 12 12 13 14 13 13 13 11 8 12 12 17 21 9 7 8 25 16 19 17 13 12 18
19 17 13 13 14 17 15 13 13 13 12 13 14 14 17 17 17 18 17 18 16 15 18 23 23 23 19 16 11 17 12 15 22 11 14 6 16 16 11 12 13 14 15
14 11 14 15 17 14 14 17 18 16 16 16 16 15 15 12 15 15 13 14 15 15 18 19 18 17 21 18 19 22 10 17 13 14 12 9 12 12 13 13 11 11 18
12 16 17 16 11 13 15 17 11 11 12 12 14 16 14 12 15 15 17 14 9 11 15 13 14 22 23 26 25 14 12 22 11 11 18 13 14 13 11 13 13 13 12
17 17 16 11 11 14 16 17 16 15 15 17 18 19 16 17 15 19 15 17 11 11 12 11 16 21 25 16 12 15 17 28 12 8 15 8 2 19 14 14 16 13 10
17 14 11 11 14 16 18 18 15 15 18 21 24 23 20 19 20 22 17 18 16 15 11 13 18 19 18 12 16 16 21 29 10 11 14 6 18 18 17 18 15 11 8
Height
3033 3034 3034 3035 3035 3036 3036 3035 3034 3033 3031 3032 3034 3035 3037 3036 3037 3037 3038 3039 3041 3042 3042 3042 3043 3043 3043 3045 3046 3046 3045 3047 3049 3050 3051 3053 3053 3055 3057 3058 3061 3061 3062
3033 3033 3034 3034 3034 3033 3032 3032 3031 3032 3032 3032 3032 3033 3033 3033 3034 3034 3034 3035 3035 3035 3035 3036 3036 3036 3037 3038 3038 3038 3040 3039 3039 3042 3045 3046 3048 3050 3051 3054 3054 3055 3055
3034 3033 3032 3032 3031 3030 3028 3027 3027 3027 3028 3028 3028 3029 3029 3028 3028 3028 3028 3029 3028 3026 3026 3027 3027 3027 3028 3029 3030 3031 3032 3031 3032 3033 3035 3039 3040 3044 3046 3048 3048 3048 3048
3033 3032 3030 3029 3028 3026 3025 3023 3022 3022 3022 3021 3021 3022 3022 3021 3020 3019 3018 3018 3017 3017 3016 3017 3017 3017 3018 3019 3020 3023 3023 3020 3022 3025 3029 3032 3034 3037 3040 3042 3042 3041 3040
3030 3029 3027 3026 3024 3022 3021 3021 3020 3018 3016 3014 3013 3012 3010 3009 3009 3009 3008 3008 3006 3006 3006 3006 3006 3007 3008 3009 3010 3012 3014 3014 3013 3014 3021 3025 3028 3029 3032 3032 3034 3034 3034
3025 3023 3021 3019 3017 3015 3013 3012 3011 3010 3008 3005 3004 3004 3003 2999 2997 2996 2994 2992 2993 2993 2993 2994 2995 2994 2996 2999 3001 3002 3006 3006 3009 3009 3012 3015 3018 3020 3021 3023 3024 3026 3027
3021 3018 3015 3013 3010 3007 3006 3004 3002 3000 2998 2996 2995 2993 2990 2987 2985 2985 2982 2982 2981 2980 2980 2981 2982 2982 2984 2987 2990 2992 2994 2997 2999 3001 3002 3006 3009 3010 3009 3013 3016 3017 3019
3014 3012 3009 3007 3003 3000 2997 2995 2992 2990 2988 2986 2984 2980 2977 2974 2972 2971 2969 2968 2968 2967 2967 2967 2968 2971 2972 2974 2977 2978 2981 2984 2984 2988 2990 2994 2995 2997 3000 3002 3005 3008 3010
3009 3006 3002 2998 2995 2992 2989 2987 2983 2978 2975 2971 2967 2963 2960 2959 2957 2955 2952 2951 2951 2951 2953 2954 2955 2957 2959 2961 2964 2966 2969 2971 2974 2979 2982 2984 2985 2988 2989 2993 2996 2997 3000
2998 2994 2989 2984 2980 2976 2972 2968 2965 2961 2957 2953 2950 2946 2942 2939 2938 2937 2936 2935 2935 2935 2937 2939 2941 2944 2944 2946 2949 2954 2958 2962 2963 2968 2970 2974 2977 2979 2981 2985 2987 2989 2990
2987 2982 2977 2971 2966 2961 2956 2953 2949 2945 2943 2940 2936 2933 2930 2927 2925 2923 2921 2920 2920 2920 2921 2925 2927 2929 2929 2934 2935 2940 2944 2949 2952 2955 2957 2960 2965 2968 2973 2975 2978 2979 2980
2976 2971 2965 2960 2955 2949 2944 2940 2935 2930 2926 2923 2919 2917 2916 2913 2909 2908 2906 2905 2905 2905 2907 2908 2911 2915 2917 2920 2923 2926 2929 2934 2939 2941 2946 2949 2953 2959 2964 2964 2965 2968 2972
2967 2961 2955 2950 2945 2939 2934 2929 2924 2919 2914 2910 2906 2903 2901 2900 2898 2896 2894 2893 2892 2891 2892 2894 2896 2899 2903 2906 2910 2913 2916 2920 2926 2928 2933 2937 2943 2948 2950 2953 2956 2958 2962
2953 2947 2942 2936 2932 2928 2923 2918 2913 2909 2904 2900 2896 2892 2889 2887 2887 2885 2883 2882 2881 2880 2880 2880 2882 2886 2890 2894 2897 2900 2903 2908 2914 2918 2922 2928 2932 2936 2939 2944 2948 2951 2952
2944 2938 2932 2926 2921 2918 2914 2909 2904 2900 2895 2890 2886 2883 2879 2876 2877 2874 2873 2872 2871 2871 2871 2872 2873 2874 2876 2881 2885 2888 2893 2897 2902 2906 2911 2917 2922 2925 2929 2933 2937 2940 2943
2934 2929 2923 2917 2913 2908 2904 2901 2896 2891 2886 2881 2876 2872 2869 2867 2866 2865 2864 2863 2862 2862 2863 2864 2865 2866 2866 2869 2872 2876 2881 2885 2890 2893 2899 2903 2909 2913 2917 2922 2925 2929 2935
2924 2919 2914 2908 2903 2899 2894 2889 2884 2882 2878 2872 2867 2863 2860 2858 2856 2855 2855 2854 2854 2853 2854 2855 2856 2858 2859 2860 2861 2864 2868 2874 2879 2882 2887 2892 2897 2901 2905 2909 2913 2918 2923
2915 2909 2903 2898 2893 2889 2883 2878 2872 2867 2862 2861 2859 2852 2850 2848 2846 2845 2845 2844 2845 2845 2845 2846 2847 2849 2850 2852 2853 2854 2858 2862 2866 2872 2876 2880 2885 2889 2892 2897 2901 2907 2913
2906 2900 2894 2889 2884 2878 2873 2867 2861 2856 2851 2846 2844 2843 2839 2837 2836 2836 2835 2834 2834 2835 2836 2837 2838 2839 2841 2842 2844 2846 2848 2852 2856 2860 2865 2870 2875 2878 2882 2887 2892 2895 2901
2897 2890 2883 2878 2873 2867 2861 2856 2851 2845 2840 2836 2833 2830 2828 2826 2826 2826 2825 2824 2824 2824 2825 2826 2827 2829 2831 2833 2834 2837 2839 2842 2847 2850 2854 2859 2865 2870 2874 2878 2882 2887 2892
2886 2879 2874 2868 2862 2856 2851 2845 2840 2836 2831 2827 2824 2821 2818 2816 2815 2815 2815 2814 2814 2814 2814 2815 2816 2818 2820 2823 2825 2827 2830 2833 2837 2842 2846 2851 2857 2861 2866 2870 2873 2878 2882
2877 2871 2866 2860 2854 2848 2842 2837 2832 2827 2823 2819 2816 2813 2810 2808 2806 2805 2804 2804 2804 2804 2804 2804 2804 2805 2808 2812 2814 2817 2821 2825 2829 2834 2838 2842 2847 2852 2856 2861 2865 2869 2874
2868 2863 2858 2852 2846 2841 2835 2829 2824 2820 2815 2812 2808 2805 2803 2801 2799 2797 2796 2796 2795 2795 2795 2794 2795 2796 2798 2800 2804 2808 2813 2816 2822 2826 2830 2835 2839 2844 2849 2853 2858 2862 2866
2862 2857 2851 2846 2840 2834 2828 2822 2817 2813 2809 2804 2801 2797 2795 2793 2791 2790 2789 2788 2788 2788 2788 2788 2788 2788 2790 2792 2796 2801 2805 2809 2814 2818 2822 2826 2832 2837 2842 2846 2850 2855 2859
2857 2851 2846 2840 2834 2827 2821 2816 2811 2807 2802 2797 2793 2790 2787 2785 2783 2782 2781 2781 2781 2781 2782 2782 2782 2783 2784 2787 2791 2795 2799 2803 2808 2812 2816 2820 2826 2830 2834 2838 2843 2849 2852
2852 2846 2841 2835 2828 2822 2816 2810 2806 2801 2796 2791 2786 2783 2780 2778 2777 2775 2775 2775 2775 2775 2775 2777 2778 2778 2780 2783 2786 2790 2793 2797 2802 2806 2811 2814 2819 2824 2828 2833 2837 2842 2846